Wetbulb
79.07 76.79 76.68 76.94 75.96 75.40 77.19 76.96 80.77 79.75 80.17 79.10 79.12 78.91 79.44 77.95 77.17 78.10 77.06 77.04 77.67 75.40
79.37 79.01 77.44 80.24 77.69 76.36 78.20 75.72 80.40 79.04 79.74 79.33 79.38 79.15 79.98 77.99 77.76 77.73 77.90 77.47 77.60 76.08
78.25 79.04 78.72 78.10 78.07 79.84 77.81 77.03 71.93 78.64 78.49 79.35 80.70 80.57 80.29 78.84 79.73 78.33 77.22 76.74 78.54 77.53
77.83 78.06 78.21 77.73 78.28 79.12 78.90 79.73 79.09 80.09 78.94 78.36 79.00 79.29 79.54 79.30 78.61 78.52 78.62 77.87 77.56 77.35
78.03 78.44 77.30 77.43 77.82 78.42 79.13 79.30 78.94 78.81 78.53 78.40 78.91 79.13 78.76 77.82 78.43 78.19 77.83 77.82 77.88 77.50
77.63 77.51 77.11 77.68 78.18 78.57 79.73 79.61 79.46 79.45 79.46 78.70 78.68 78.29 78.15 78.66 78.33 77.46 77.04 76.94 77.57 77.42
79.07 78.93 78.49 79.37 79.93 78.45 80.67 80.72 80.78 80.08 79.98 79.40 79.31 80.31 79.00 78.10 77.89 77.95 77.29 76.88 76.91 76.90
80.96 81.41 82.21 81.52 81.41 82.20 82.16 80.77 80.92 80.90 80.09 79.68 79.19 78.08 79.59 77.85 77.13 77.14 76.76 76.76 76.58 76.57
81.87 81.70 81.67 82.52 82.08 82.74 81.59 81.15 81.09 81.61 80.65 79.62 76.35 70.66 71.27 73.78 76.69 76.83 76.40 75.34 75.94 76.26
81.24 81.61 82.01 82.01 81.44 80.80 80.93 81.27 79.95 79.84 79.64 78.97 75.43 68.00 69.45 71.51 76.90 75.66 75.99 74.27 73.48 73.13
80.00 79.52 80.57 81.38 80.83 81.75 81.20 81.27 81.38 80.31 80.30 78.82 71.40 64.62 67.74 70.66 75.83 75.74 75.06 75.08 73.86 73.51
79.89 80.17 80.74 80.61 81.13 81.36 80.37 80.61 80.54 80.20 79.93 78.15 72.59 64.28 65.04 68.38 74.96 73.93 74.09 74.07 72.78 71.64
80.47 81.27 81.24 82.09 81.88 81.12 80.62 78.58 78.25 77.85 78.21 71.50 72.22 59.93 60.39 65.86 72.33 72.37 70.90 74.06 68.96 63.11
81.74 82.44 82.72 81.87 81.50 81.14 80.38 80.07 79.56 77.78 76.38 75.60 71.98 64.11 57.82 58.56 72.15 69.47 69.69 68.97 69.00 66.30
MSLP
1013.62 1013.53 1013.37 1013.29 1013.98 1014.70 1013.97 1013.59 1013.85 1015.13 1015.04 1015.48 1016.05 1016.11 1016.14 1016.38 1016.59 1016.51 1016.82 1017.01 1017.20 1016.77
1013.20 1013.22 1012.89 1012.50 1012.78 1013.49 1013.87 1013.45 1012.89 1015.63 1016.08 1014.93 1015.58 1015.90 1016.25 1016.13 1016.47 1016.62 1016.83 1016.56 1016.75 1016.97
1012.66 1013.05 1013.05 1012.86 1012.82 1012.66 1013.59 1013.10 1014.61 1015.87 1016.30 1015.26 1015.40 1015.90 1016.15 1015.68 1016.12 1016.41 1016.30 1016.10 1016.06 1016.39
1011.99 1012.49 1012.99 1012.96 1013.10 1013.42 1014.57 1015.04 1015.57 1015.80 1015.96 1014.89 1015.07 1015.61 1015.99 1016.03 1016.10 1016.21 1016.24 1016.31 1016.20 1016.10
1011.52 1011.90 1012.29 1012.65 1012.75 1012.98 1013.52 1014.62 1015.22 1015.25 1014.81 1014.53 1015.09 1015.50 1015.79 1015.81 1015.58 1015.97 1016.20 1016.30 1016.23 1015.91
1010.95 1011.51 1011.77 1012.33 1012.69 1012.86 1013.10 1013.51 1013.71 1014.03 1014.31 1014.88 1015.29 1015.51 1015.62 1015.71 1015.77 1015.81 1016.01 1016.14 1016.06 1015.98
1010.21 1011.02 1011.60 1012.06 1012.53 1013.00 1013.24 1013.65 1013.94 1014.29 1014.76 1014.92 1015.30 1015.40 1015.49 1015.63 1015.84 1015.71 1015.71 1015.74 1015.86 1015.77
1010.08 1010.73 1011.34 1011.94 1012.26 1012.79 1013.18 1013.56 1013.94 1014.30 1014.55 1014.72 1014.80 1014.91 1015.35 1015.52 1015.63 1015.66 1015.65 1015.58 1015.60 1015.64
1010.06 1010.58 1011.06 1011.68 1012.05 1012.60 1013.07 1013.39 1013.83 1014.11 1014.53 1014.55 1015.20 1015.29 1015.54 1015.64 1015.57 1015.60 1015.68 1015.73 1016.01 1016.03
1009.97 1010.37 1010.87 1011.48 1011.88 1012.47 1012.90 1012.97 1013.40 1013.87 1014.22 1014.44 1015.39 1015.64 1015.97 1016.06 1015.78 1015.86 1016.16 1016.59 1016.81 1016.73
1010.02 1010.52 1010.94 1011.24 1011.72 1012.34 1012.95 1012.82 1013.09 1013.75 1014.16 1014.71 1015.74 1015.96 1016.18 1016.25 1016.05 1016.20 1016.49 1016.47 1016.70 1016.87
1009.88 1010.10 1010.44 1010.85 1011.44 1012.10 1012.46 1012.58 1013.27 1013.66 1013.94 1014.72 1016.09 1016.26 1016.39 1016.44 1015.65 1015.98 1016.15 1016.59 1016.92 1017.02
1009.10 1009.55 1009.90 1010.55 1011.13 1011.87 1012.31 1012.53 1012.57 1013.47 1014.22 1015.20 1016.27 1016.70 1016.64 1016.43 1015.43 1015.61 1015.62 1015.82 1017.07 1017.39
1008.11 1008.88 1009.82 1010.67 1011.20 1011.66 1012.05 1012.05 1012.66 1013.57 1014.71 1015.49 1016.36 1017.03 1016.76 1016.44 1016.16 1016.08 1015.80 1015.56 1015.83 1017.38
Wind_Speed
12 9 9 10 8 11 1 8 14 7 7 5 5 5 4 6 6 5 5 5 5 9
12 11 9 9 8 8 6 6 12 7 2 5 5 5 5 6 5 3 6 6 7 7
13 11 9 6 7 8 7 16 9 5 6 5 6 7 6 4 7 5 6 6 6 5
13 13 11 10 8 8 4 4 4 5 4 4 5 6 5 6 4 6 6 7 6 7
13 12 13 11 10 9 6 6 6 5 3 3 4 4 5 6 7 4 6 5 7 8
14 14 13 12 10 9 7 7 6 5 3 3 4 4 6 5 4 4 5 6 5 7
14 13 12 10 10 10 7 7 7 5 6 6 5 7 4 1 3 3 3 0 4 5
12 11 10 10 9 9 9 9 8 8 7 7 5 4 6 4 3 1 3 4 4 6
11 11 10 10 10 9 10 9 8 7 7 6 7 8 8 2 1 2 4 6 9 8
12 11 11 11 10 10 11 10 8 8 9 7 7 7 4 2 1 4 6 4 4 7
12 11 11 12 12 10 10 9 9 8 7 10 5 3 3 4 1 3 1 4 5 6
12 12 12 13 13 12 11 9 8 8 9 10 6 5 1 3 8 4 3 6 4 5
13 12 13 13 12 11 10 11 11 10 9 10 8 9 9 7 4 3 4 9 10 11
14 13 12 11 11 11 11 10 9 10 8 8 8 7 7 10 5 5 5 6 1 9
Wind_Direction
197 202 219 219 252 186 278 201 131 150 161 177 182 220 198 211 235 198 228 248 270 295
195 225 217 244 216 232 212 43 113 139 181 157 190 212 187 245 204 261 211 239 226 242
195 205 234 218 250 291 21 110 228 179 179 185 172 208 214 240 179 219 251 236 208 259
199 195 206 217 213 238 197 85 172 201 208 187 194 206 214 274 257 218 242 266 278 251
192 200 195 217 204 210 223 189 182 200 194 206 205 216 227 252 299 253 276 269 282 273
188 194 207 197 217 224 197 214 186 218 202 224 230 222 244 258 280 326 295 285 247 267
179 191 196 204 192 211 199 197 211 195 217 217 221 207 250 243 237 239 226 331 312 294
177 182 184 196 199 197 191 194 206 196 196 217 204 196 173 157 170 296 324 304 264 252
170 176 181 190 193 190 188 193 188 190 194 216 82 72 65 349 160 318 302 328 338 326
175 178 183 186 184 188 194 181 183 176 186 141 102 69 124 152 281 346 6 356 312 305
171 176 184 183 182 183 190 174 169 178 168 123 95 102 133 185 137 126 32 31 23 31
183 184 181 185 183 179 181 162 153 179 156 138 108 88 88 265 222 96 137 112 71 23
183 187 180 182 173 183 173 164 175 154 158 116 118 46 26 354 345 103 315 176 125 74
175 177 179 174 175 173 183 149 144 140 137 136 115 79 43 26 80 8 321 339 1 83